Location: Mouss�
(47.9236°N, 1.2701°W)
Time: 21:20:34
(UTC+00:00)

SL-4 R/B - Pass Details

Date: 03 March 2021
Orbit: 428 x 663 km, 51.6° (Epoch: 14 April)

Event Time Altitude Azimuth Distance (km) Brightness Sun altitude
Rises 19:49:26 0° 292° (WNW) 2,470 6.9 -20.2°
Reaches altitude 10° 19:51:37 10° 294° (WNW) 1,570 5.5 -20.6°
Enters shadow 19:54:54 72° 336° (NNW) 460 1.6 -21.1°
